Skip to content

GuitarMania

(*.173.26.221) 조회 수 26640 댓글 1
저는 요즘 기타를 접하고 있지 않기도 하거니와,  트레몰로와 알함브라를 즐겁게 즐기자는 쪽으로

돌아서서  왠만한 경우는 그냥 넘깁니다만....

프로 연주자이거나 자신감이 넘치는 분들은 한번 느린 재생을 해봅니다.

아버님의 글에서 그런 뉘앙스를 느꼈기에 시도했었는데...

그런 자신감에 충분한 이유가 있다고 느껴져서 올려봅니다.




속도를 늦추어 봤습니다.

정확도면만 생각합니다.  

제 느낌은 존윌리엄즈와 비슷하다는 겁니다.

정확한듯 하다가 몰렸다가...

메트로놈 140 에서 출발하며 160을 상회하는듯 합니다.

초반의 정확성이 속도를 높이면서 윌리엄즈 현상이 일어나는듯 보입니다.

속도를 낮추어서 속도를 높이면 발생하는 그러나 귀로 구분하기 힘든 accuracy를

훈련하는것이 어떨까 생각해봅니다.  


굳이 기성 연주자의 속도를 내면서 귀로 구분하기 힘든 부정확함을 어릴때부터 가지는것은....



이정도만 해도 굉장히 훌륭한 수준입니다.

아마츄어이며 아이이기에...   정확도면에서 보경양 보다  낳다고 할수 있습니다.


  그러나 여전히 아쉬운 것은  좀더 천천히 좀더 basic 한 모습을 유지했으면 하는 바램때문입니다.

  마지 어린아이가 선생님의 바램에 힘들어 하는 모습이 느껴지기 때문입니다~

  
좋은 연주자는 되겠지만,  즐거운 연주자가 되었으면 합니다.

스타킹의 박지헤처럼...





  
Comment '1'
  • 크.. 2011.08.15 22:20 (*.173.26.221)
    http://wizard2.sbs.co.kr/resource/template/contents/44_netv.jsp?vProgId=1000345&vVodId=V0000329665&vMenuId=1008723&uccid=10000883775&st=0&cooper=NAVER

    http://www.mystarnews.com/mystar/index.html?no=449709
?

List of Articles
번호 제목 글쓴이 날짜 조회 수
836 Kiss the rain 11 file niceplace 2011.06.05 26218
835 I.Albeniz - Sevilla (쎄비야) 11 file 정훈 2011.06.08 24737
834 Sonata K.175 - Domenico Scarlatti 14 file 정훈 2011.06.08 25730
833 Alhambra & IF: 상품 없는 퀴즈 ^^ 1 섬소년 2011.06.09 32107
832 [re] K.213 file 정훈 2011.06.12 37101
831 스칼라티 소나타 K.175 / K.213 [재녹음] 7 file 정훈 2011.06.12 25459
830 예민 - 어느 산골 소년의 사랑 이야기 34 파크닝팬 2011.06.14 33531
829 자파테아도_로드리고 16 file 안나언니 2011.06.16 28146
828 Song From Secret Garden 8 file summerrain 2011.06.22 21559
827 He is a pirate 1 장기타 2011.06.25 29203
826 사랑의 기쁨 장기타 2011.06.25 24878
825 가로수 그늘 아래 서면 2 장기타 2011.06.25 26053
824 라 트라비아타 주제에 의한 환상곡 17 file 2011.06.26 25887
823 김우탁 : J.Rodrigo - Un Tiempo Fue Italica Famosa 25 file 고정석 2011.06.26 32656
822 바하 류트조곡 1번 알레망드 8 file 마이바흐 2011.06.27 22220
821 호텔 캘리포니아 6 조이오브기타 2011.06.28 39079
820 Joy of guitar Ensemble-Wind hill 3 조이오브기타 2011.06.29 62003
» [re] 알람브라 궁전의 추억 1 file 크.. 2011.08.15 26640
818 Les Feuilles Mortes (고엽)--- Joseph Kosma arr. 고정석 (재녹음) 7 file 고정석 2011.07.03 26526
817 초우 장기타 2011.07.03 36578
816 내 하나의 사람은 가고 5 file 야매 2011.07.09 23665
815 Cancion Guayanesa - A.Montes 27 file 괭퇘 2011.07.10 32941
814 길 /조관우 5 file 야매 2011.07.10 31157
813 보리밭 4 장기타 2011.07.11 79269
812 El condor pasa 장기타 2011.07.17 27740
811 본능적으로 /강승윤 2 file 야매 2011.07.18 49439
810 대전 블루스 3 file 야매 2011.07.18 31748
809 바리오스 - Julia Florida 46 file 2011.07.18 27086
808 Sor Etude Op.6, No.11 1 file 화려한연습곡 2011.07.21 28941
807 Roland Dyens- valse en skai 3 김우탁 2011.07.22 30726
806 서른즈음에 4 장기타 2011.07.23 62089
805 [re] 연주 영상 4 lute 2011.07.30 49366
804 Chaconne from BWV 1004 6 file lute 2011.07.25 28946
803 그루터기 장기타 2011.07.29 37243
802 대성당 1악장입니다. 1 file JTM 2011.08.01 29747
801 Yesterday ---- Beatles arr. Toru Takemitsu 3 file 고정석 2011.08.07 33731
800 비처럼 음악처럼 (김현식 Acoustic Cover) - 임석환 3 TheGuitarist 2011.08.12 29493
799 2NE1 LONEY!!! 클레식기타로 쳐봤어요! 3 TheGuitarist 2011.08.16 34078
798 첨밀밀 장기타 2011.08.21 23607
797 Moliendo Cafe 7 file summerrain 2011.08.22 33304
796 달빛이 내마음을 대신해요.... 5 장기타 2011.08.22 25284
795 The sound of silence 장기타 2011.08.26 25843
794 긴머리 소녀 12 file 노동환 2011.08.28 33665
793 바람이 불어 오는곳 1 장기타 2011.08.30 24860
792 [동영상]여고시절-[이수미1972년] 7 file 노동환 2011.09.02 29948
791 Recuerdos de la Alhambra - F. Tarrega 11 file PJB 2011.09.03 38920
790 바흐 첼로조곡 3번 C 부레 9 file 오리베 2011.09.05 25134
789 고향의 옛집 장기타 2011.09.07 25773
788 어느 60대 노부부의 이야기 장기타 2011.09.09 33153
787 내 사람이여 (백창우) 2 file gaspar 2011.09.16 34748
786 Stand By Me 4 summerrain 2011.09.17 26807
785 [동영상] 갈보리산위에 6 file 노동환 2011.09.30 72529
784 알람브라궁전의 추억 3 이하늘 2011.09.30 24393
783 Alla Cubana 입니다. 15 file ..... 2011.10.02 23089
782 진태권님이 편곡하신 곡을 연주해서 올려 봅니다.. 13 감사.. 2011.10.04 27387
781 [자작곡] Friday morning 20 최병욱 2011.10.07 24785
780 [자작곡] Sonnet of mist 7 최병욱 2011.10.07 24128
779 오늘밤은 어둠이 무서워요 (10cm) -임석환 2 TheGUITARIST 2011.10.08 23463
778 n.coste-andante et polonaise op. 44 8 file 호이호이 2011.10.08 26100
777 I miss you - Per-Olov Kindgren 4 file ㄲㅏㅇ 2011.10.13 25219
776 [동영상] La Paloma 12 file 노동환 2011.10.14 27426
775 리브라 소나티네 3악장 5 이하늘 2011.10.14 24239
774 한국기타협회 콩쿨 4 이병욱 2011.10.23 31579
773 Cavatina 19 file 노동환 2011.10.23 27022
772 브라질풍 바흐 5번 summerrain 2011.10.25 27760
771 Killing Me Softly With His Song 8 file 노동환 2011.10.28 29335
770 파카니니 소나타 Op3. No.6 26 파크닝팬 2011.10.30 24569
769 Allemande- S. L. Weiss 4 file 섬소년 2011.10.30 23089
768 Prelude - D. Scarlatti 5 file 섬소년 2011.10.30 27655
767 BWV 998-Prelude-Bach 6 file 섬소년 2011.11.01 43581
766 Prelude-P. Lerich 2 file 섬소년 2011.11.01 34867
765 Rodrigo Riera - Canción Caroreña 28 file 2011.11.04 25069
764 애인 있어요 19 파크닝팬 2011.11.04 30069
763 Telemann-Concerto for 4 Violins 1mv. 11 file 섬소년 2011.11.06 26317
762 He was beautiful(cavatina) 9 file limnz 2011.11.06 29395
761 W.Walton-Alla Cubana 16 file 2011.11.08 25208
760 바람의 시 Wind Song 13 file limnz 2011.11.15 27690
759 옛시인의 노래 7 file 야매 2011.11.19 27882
758 아라비아 기상곡 12 이하늘 2011.11.22 26011
757 BWV1001 adagio 7현기타 편곡 9 최병욱 2011.11.22 30316
756 A day without rain - Enya ( Ritschi2 연주 ) 진태권 2011.11.26 26543
755 Kleine Romanze 16 file niceplace 2011.11.26 24944
754 하은, 하진이의 기타듀오 24 장형섭 2011.11.30 36281
753 cantabile (바이올린 - 기타 이중주) 18 file niceplace 2011.11.30 25709
752 떠나가는 배 3 file 야매 2011.12.04 24188
751 sonata NO.6 (바이올린-기타 이중주) 9 file niceplace 2011.12.05 36405
750 스페인 세레나데 13 이하늘 2011.12.05 24893
749 바흐 첼로조곡 4번 지그 (Eb) 10 file 오리베 2011.12.06 27241
748 ISLE OF INISFREE (이니스프리 호수의 섬) 재 녹음/기타아와 하프 9 file 에스떼반 2011.12.15 24665
747 [동영상] Mother of Mine 18 file 노동환 2011.12.16 27826
746 사랑의 슬픔 1 file 야매 2011.12.18 25138
745 로망스 11 file niceplace 2011.12.21 35726
744 칭구음악듣기 게시판은요.... 2 2004.04.11 92328
743 Allemande (J.S.Bach) 5 file niceplace 2011.12.25 77932
742 Scarborough Fair ---- English Folk arr. by Ulf Brocksten 9 file 고정석 2011.12.23 30001
741 Francis Lai - 13 Jours En France (영화 '하얀 연인들' 주제곡) 5 노동환 2012.01.06 37057
740 Valsa sem nome ---- Baden Powell 5 file 고정석 2012.01.06 35007
739 나미 슬픈인연 ( 지나는 길 님 연주 ) 2 진태권 2012.01.07 24814
738 섬집아이 [클라우드님 연주] 1 진태권 2012.01.09 44287
737 [동영상] 사랑을 위하여 (김종환 노래) 4 노동환 2012.01.13 40886
Board Pagination ‹ Prev 1 ... 20 21 22 23 24 25 26 27 28 29 30 31 32 33 34 35 36 37 38 39 Next ›
/ 39

나눔글꼴 설치 안내


이 PC에는 나눔글꼴이 설치되어 있지 않습니다.

이 사이트를 나눔글꼴로 보기 위해서는
나눔글꼴을 설치해야 합니다.

설치 취소

Designed by sketchbooks.co.kr / sketchbook5 board skin

Sketchbook5, 스케치북5

Sketchbook5, 스케치북5

Sketchbook5, 스케치북5

Sketchbook5, 스케치북5

Powered by Xpress Engine / Designed by hikaru100

abcXYZ, 세종대왕,1234

abcXYZ, 세종대왕,1234